Home   Weather   Chur   Past weeks

Flag for Switzerland Past Weather in Chur, Graubünden, Switzerland — Yesterday and Last 2 Weeks

Now
15 °F

Cold.


Feels Like: 15 °F
Forecast: 15 / 40 °F
Wind: 1 mph from North

Location: Chur

Current Time: Jan 21, 2017 at 1:40:04 am

Latest Report: Jan 21, 2017 at 12:00 am


Visibility: N/A

Pressure: 30.56 "Hg (28.30 "Hg at 592m altitude)

Humidity: 91%

Dew Point: 13 °F

Location of ChurLocation

Past Weather in Chur — Graph

°F

Chur Temperature Yesterday

Maximum temperature yesterday: 22 °F (at 3:00 pm)
Minimum temperature yesterday: 11 °F (at 7:00 am)
Average temperature yesterday: 16 °F

High & Low Weather Summary for the Past Weeks

 TemperatureHumidityPressure
High42 °F (Jan 13, 12:00 am)95% (Jan 14, 2:00 pm)30.78 "Hg (Jan 14, 2:00 pm)
Low9 °F (Jan 18, 8:00 am)52% (Jan 6, 3:00 pm)29.54 "Hg (Jan 13, 2:00 am)
Average24 °F79%30.30 "Hg
* Reported Jan 6 12:00 am — Jan 21 12:00 am, Chur, Weather by CustomWeather, © 2017

Note: Actual official high and low records may vary slightly from our data, if they occured in-between our weather recording intervals... More about our weather records

Advertising

Chur Weather History for the Previous 24 Hours

Scroll right to see more
 ConditionsComfort  
Time TempWeatherWind HumidityBarometerVisibility
12:00 am
Sat, Jan 21
15 °FCold.1 mph91%30.56 "HgN/A
11:00 pm
Fri, Jan 20
15 °FCold.1 mph91%30.56 "HgN/A
10:00 pm11 °FFog.1 mph92%30.58 "Hg6 mi
9:00 pm15 °FCold.No wind92%30.57 "HgN/A
8:00 pm13 °FCold.1 mph91%30.58 "HgN/A
7:00 pm16 °FFog.3 mph92%30.56 "Hg5 mi
6:00 pm18 °FCold.5 mph93%30.55 "HgN/A
5:00 pm19 °FCold.7 mph89%30.54 "HgN/A
4:00 pm21 °FFog.7 mph83%30.52 "Hg6 mi
3:00 pm22 °FCold.10 mph80%30.51 "HgN/A
2:00 pm22 °FCold.12 mph79%30.51 "HgN/A
1:00 pm21 °FFog.9 mph77%30.52 "Hg9 mi
12:00 pm21 °FCold.3 mph78%30.54 "HgN/A
11:00 am16 °FCold.6 mph86%30.58 "HgN/A
10:00 am13 °FSunny.5 mph87%30.60 "Hg19 mi
9:00 am14 °FCold.3 mph87%30.58 "HgN/A
8:00 am11 °FCold.1 mph91%30.58 "HgN/A
7:00 am11 °FFog.2 mph94%30.58 "Hg5 mi
6:00 am14 °FCold.5 mph87%30.57 "HgN/A
5:00 am17 °FCold.6 mph87%30.54 "HgN/A
4:00 am18 °FClear.1 mph90%30.53 "Hg11 mi
3:00 am16 °FCold.5 mph88%30.55 "HgN/A
2:00 am17 °FCold.1 mph93%30.55 "HgN/A
1:00 am16 °FFog.1 mph92%30.57 "Hg7 mi
Weather by CustomWeather, © 2017

See weather overviewHow to use our weather pages